period_start,C,m1,H,J0,J1,J2,J3,J4,J5,JA,JB,JC,JD,JJ,JK,JN,#
2018-05-21 00:04:49,0.00,1.17,0.00,25.35,28.99,31.77,13.86,44.38,1023.45,2019.00,2945.98,2761.00,3160.05,599.95,595.27,53.76,0000 0000 0000 0000 000000
2018-05-21 00:09:50,0.00,1.17,0.00,25.37,29.00,31.77,13.91,44.33,1023.45,2019.00,2945.82,2761.00,3160.00,599.84,595.21,53.81,0000 0000 0000 0000 000000
2018-05-21 00:14:51,0.01,1.17,0.00,25.43,29.00,31.78,13.88,44.41,1023.45,2019.00,2945.36,2760.99,3160.00,600.18,595.38,53.86,0000 0000 0000 0000 000000
2018-05-21 00:19:52,0.00,1.17,0.00,25.40,29.00,31.77,13.85,44.34,1023.46,2019.00,2945.03,2760.96,3159.99,599.94,595.16,53.91,0000 0000 0000 0000 000000
2018-05-21 00:24:53,0.00,1.17,0.00,25.37,29.00,31.78,13.85,44.33,1023.46,2019.00,2945.00,2760.94,3159.98,600.00,595.27,53.96,0000 0000 0000 0000 000000
2018-05-21 00:29:55,0.00,1.17,0.00,25.41,29.00,31.77,13.98,44.44,1023.45,2019.00,2945.00,2760.85,3159.95,600.55,595.74,54.02,0000 0000 0000 0000 000000
2018-05-21 00:34:56,0.02,1.17,0.00,25.42,29.00,31.77,13.90,44.47,1023.46,2019.00,2944.98,2760.33,3159.68,600.16,595.50,54.07,0000 0000 0000 0000 000000
2018-05-21 00:39:57,0.01,1.17,0.00,25.36,28.99,31.78,13.79,44.42,1023.47,2019.00,2944.97,2760.12,3159.26,599.97,595.28,54.12,0000 0000 0000 0000 000000
2018-05-21 00:44:59,0.00,1.17,0.00,25.35,28.99,31.79,13.94,44.48,1023.46,2019.01,2944.82,2760.04,3159.07,600.22,595.54,54.17,0000 0000 0000 0000 000000
2018-05-21 00:50:00,0.01,1.17,0.00,25.38,28.97,31.81,13.85,44.50,1023.48,2019.00,2944.40,2760.02,3159.03,599.83,595.15,54.22,0000 0000 0000 0000 000000
2018-05-21 00:55:01,0.00,1.17,0.00,25.27,28.97,31.86,13.86,44.42,1023.53,2019.00,2944.02,2760.00,3159.00,600.39,595.97,54.27,0000 0000 0000 0000 000000
2018-05-21 01:00:03,0.00,1.17,0.00,25.26,28.96,31.89,13.79,44.59,1023.52,2019.01,2944.00,2760.00,3159.00,599.66,595.26,54.32,0000 0000 0000 0000 000000
2018-05-21 01:05:04,0.00,1.17,0.00,25.31,28.95,31.81,13.87,44.58,1023.60,2019.01,2944.00,2760.00,3159.00,599.98,595.40,54.37,0000 0000 0000 0000 000000
2018-05-21 01:10:06,0.00,1.17,0.00,25.27,28.94,31.92,13.90,44.52,1023.62,2019.01,2944.00,2760.00,3159.00,599.80,595.54,54.42,0000 0000 0000 0000 000000
2018-05-21 01:15:07,-0.00,1.17,0.00,25.17,28.91,31.92,13.78,44.37,1023.49,2019.04,2944.00,2760.00,3159.00,599.78,595.48,54.47,0000 0000 0000 0000 000000
2018-05-21 01:20:09,0.02,1.18,0.00,25.02,28.88,31.89,13.93,44.37,1023.51,2019.23,2944.00,2760.02,3159.01,600.26,596.23,54.52,0000 0000 0000 0000 000000
2018-05-21 01:25:10,0.04,1.18,0.00,24.97,28.84,31.84,13.86,44.37,1023.49,2019.65,2944.00,2760.03,3159.04,599.76,595.93,54.57,0000 0000 0000 0000 000000
2018-05-21 01:30:11,-0.00,1.18,0.00,24.93,28.80,31.72,13.93,44.45,1023.47,2019.95,2944.00,2760.35,3159.38,600.01,596.20,54.62,0000 0000 0000 0000 000000
2018-05-21 01:35:12,-0.01,1.18,0.00,24.89,28.76,31.61,13.89,44.45,1023.47,2019.99,2944.00,2760.85,3159.89,599.99,596.12,54.67,0000 0000 0000 0000 000000
2018-05-21 01:40:13,0.00,1.18,0.00,24.87,28.71,31.54,13.94,44.48,1023.46,2019.99,2944.02,2760.97,3159.97,600.06,596.41,54.72,0000 0000 0000 0000 000000
2018-05-21 01:45:15,0.00,1.18,0.00,24.86,28.66,31.48,13.91,44.48,1023.46,2020.02,2944.04,2760.99,3159.99,600.00,596.31,54.77,0000 0000 0000 0000 000000
2018-05-21 01:50:16,0.01,1.18,0.00,24.83,28.61,31.41,13.94,44.41,1023.46,2020.13,2944.11,2760.99,3159.99,599.82,596.24,54.82,0000 0000 0000 0000 000000
2018-05-21 01:55:17,0.04,1.18,0.00,24.81,28.57,31.36,13.90,44.48,1023.45,2020.67,2944.57,2761.01,3160.02,599.75,596.28,54.88,0000 0000 0000 0000 000000
2018-05-21 02:00:18,0.01,1.18,0.00,24.80,28.52,31.28,13.87,44.52,1023.46,2020.95,2944.58,2761.04,3160.06,600.07,596.50,54.93,0000 0000 0000 0000 000000
2018-05-21 02:05:19,-0.00,1.18,0.00,24.81,28.47,31.25,13.86,44.53,1023.45,2020.97,2944.45,2761.12,3160.23,599.77,596.03,54.98,0000 0000 0000 0000 000000
2018-05-21 02:10:20,-0.04,1.18,0.00,24.84,28.43,31.19,13.93,44.48,1023.46,2020.99,2944.92,2761.74,3160.90,600.15,596.43,55.03,0000 0000 0000 0000 000000
2018-05-21 02:15:22,-0.00,1.18,0.00,24.82,28.38,31.12,13.97,44.52,1023.45,2021.00,2944.98,2761.96,3160.98,600.40,596.76,55.08,0000 0000 0000 0000 000000
2018-05-21 02:20:23,0.00,1.18,0.00,24.84,28.34,31.03,13.91,44.52,1023.45,2021.09,2944.99,2761.98,3160.99,600.27,596.56,55.13,0000 0000 0000 0000 000000
2018-05-21 02:25:24,0.06,1.18,0.00,24.86,28.31,31.02,13.88,44.57,1023.45,2021.54,2944.99,2761.99,3161.00,599.88,596.18,55.18,0000 0000 0000 0000 000000
2018-05-21 02:30:26,0.01,1.18,0.00,24.87,28.27,31.00,13.88,44.58,1023.45,2021.94,2945.00,2762.01,3161.05,599.73,596.11,55.23,0000 0000 0000 0000 000000
2018-05-21 02:35:27,-0.01,1.18,0.00,24.88,28.24,30.99,13.79,44.46,1023.45,2021.99,2945.00,2762.04,3161.27,600.05,596.28,55.28,0000 0000 0000 0000 000000
2018-05-21 02:40:28,-0.00,1.18,0.00,24.87,28.21,30.98,13.90,44.56,1023.45,2021.99,2945.00,2762.06,3161.62,600.03,596.25,55.33,0000 0000 0000 0000 000000
2018-05-21 02:45:29,-0.01,1.18,0.00,24.89,28.18,30.98,13.89,44.47,1023.43,2022.00,2945.00,2762.40,3161.92,600.36,596.64,55.38,0000 0000 0000 0000 000000
2018-05-21 02:50:30,-0.01,1.18,0.00,24.91,28.16,30.96,13.85,44.52,1023.42,2022.07,2945.02,2762.86,3161.99,599.88,595.99,55.43,0000 0000 0000 0000 000000
2018-05-21 02:55:32,0.02,1.18,0.00,24.92,28.13,30.92,13.88,44.49,1023.36,2022.23,2945.03,2762.93,3161.99,599.97,596.10,55.48,0000 0000 0000 0000 000000
2018-05-21 03:00:33,0.04,1.18,0.00,24.94,28.11,30.91,13.87,44.39,1023.39,2022.63,2945.00,2762.92,3161.99,600.20,596.31,55.53,0000 0000 0000 0000 000000
2018-05-21 03:05:34,0.02,1.19,0.00,24.98,28.10,30.78,13.80,44.40,1023.39,2022.88,2945.00,2762.90,3161.99,599.89,595.92,55.58,0000 0000 0000 0000 000000
2018-05-21 03:10:35,0.00,1.19,0.00,24.98,28.07,30.76,13.80,44.39,1023.44,2022.89,2945.00,2762.80,3161.97,599.62,595.85,55.63,0000 0000 0000 0000 000000
2018-05-21 03:15:37,0.00,1.19,0.00,25.00,28.06,30.72,13.85,44.35,1023.43,2022.96,2945.00,2762.92,3161.99,599.96,596.00,55.68,0000 0000 0000 0000 000000
2018-05-21 03:20:38,0.00,1.19,0.00,25.02,28.05,30.71,13.86,44.49,1023.44,2022.99,2945.00,2762.97,3161.99,599.92,595.81,55.73,0000 0000 0000 0000 000000
2018-05-21 03:25:40,0.00,1.19,0.00,25.03,28.03,30.71,13.90,44.53,1023.44,2022.99,2945.00,2762.95,3161.99,599.80,595.76,55.78,0000 0000 0000 0000 000000
2018-05-21 03:30:41,0.00,1.19,0.00,25.06,28.02,30.70,13.83,44.32,1023.43,2022.99,2945.00,2762.94,3161.99,599.73,595.56,55.83,0000 0000 0000 0000 000000
2018-05-21 03:35:42,0.00,1.19,0.00,25.08,28.02,30.70,13.87,44.48,1023.41,2022.99,2944.97,2762.89,3161.99,600.14,595.89,55.89,0000 0000 0000 0000 000000
2018-05-21 03:40:43,0.00,1.19,0.00,25.09,28.01,30.69,13.80,44.55,1023.29,2022.99,2944.91,2762.77,3161.96,599.80,595.47,55.94,0000 0000 0000 0000 000000
2018-05-21 03:45:44,0.00,1.19,0.00,25.12,28.00,30.70,13.88,44.53,1023.18,2022.99,2944.86,2762.64,3161.95,599.87,595.50,55.99,0000 0000 0000 0000 000000
2018-05-21 03:50:46,0.02,1.19,0.00,25.14,28.00,30.69,13.82,44.47,1023.20,2023.00,2944.52,2762.43,3161.92,599.94,595.46,56.04,0000 0000 0000 0000 000000
2018-05-21 03:55:47,0.02,1.19,0.00,25.18,28.00,30.71,13.86,44.32,1023.29,2023.01,2944.09,2762.16,3161.70,600.18,595.74,56.09,0000 0000 0000 0000 000000
2018-05-21 04:00:49,0.01,1.19,0.00,25.18,28.00,30.70,13.86,44.49,1023.44,2023.01,2944.04,2762.09,3161.45,600.04,595.76,56.14,0000 0000 0000 0000 000000
2018-05-21 04:05:50,0.00,1.19,0.00,25.20,28.00,30.72,13.87,44.38,1023.45,2023.00,2944.02,2762.03,3161.25,599.87,595.54,56.19,0000 0000 0000 0000 000000
2018-05-21 04:10:51,0.00,1.19,0.00,25.25,28.01,30.71,13.81,44.53,1023.44,2023.00,2944.00,2762.00,3161.05,599.85,595.30,56.24,0000 0000 0000 0000 000000
2018-05-21 04:15:53,0.00,1.19,0.00,25.25,28.02,30.71,13.79,44.44,1023.41,2023.00,2944.00,2762.00,3161.00,599.47,594.97,56.29,0000 0000 0000 0000 000000
2018-05-21 04:20:54,0.00,1.19,0.00,25.26,28.02,30.73,13.89,44.55,1023.32,2023.00,2943.96,2761.99,3160.99,600.53,595.87,56.34,0000 0000 0000 0000 000000
2018-05-21 04:25:56,0.00,1.19,0.00,25.30,28.02,30.74,13.89,44.44,1023.29,2023.00,2943.76,2761.97,3160.97,600.14,595.58,56.39,0000 0000 0000 0000 000000
2018-05-21 04:30:57,0.01,1.19,0.00,25.34,28.03,30.75,13.84,44.33,1023.28,2023.00,2943.29,2761.90,3160.90,600.49,595.76,56.44,0000 0000 0000 0000 000000
2018-05-21 04:35:58,0.03,1.19,0.00,25.34,28.05,30.76,13.80,44.34,1023.12,2023.00,2943.02,2761.41,3160.39,599.74,594.92,56.49,0000 0000 0000 0000 000000
2018-05-21 04:40:59,0.01,1.19,0.00,25.39,28.05,30.77,13.81,44.37,1023.16,2023.00,2943.00,2761.11,3160.03,600.03,595.04,56.54,0000 0000 0000 0000 000000
2018-05-21 04:46:01,0.00,1.19,0.00,25.40,28.06,30.79,13.86,44.41,1023.17,2023.00,2942.99,2761.01,3160.00,600.44,595.37,56.59,0000 0000 0000 0000 000000
2018-05-21 04:51:02,0.00,1.19,0.00,25.42,28.07,30.79,13.74,44.42,1023.07,2023.00,2942.78,2761.00,3160.00,599.51,594.42,56.64,0000 0000 0000 0000 000000
2018-05-21 04:56:03,0.00,1.19,0.00,25.46,28.08,30.80,13.70,44.35,1023.28,2023.00,2942.37,2761.00,3159.98,599.68,594.68,56.69,0000 0000 0000 0000 000000
2018-05-21 05:01:05,0.01,1.19,0.00,25.46,28.10,30.83,13.84,44.36,1023.24,2023.00,2942.04,2760.92,3159.59,600.29,595.25,56.74,0000 0000 0000 0000 000000
2018-05-21 05:06:06,0.02,1.19,0.00,25.49,28.11,30.84,13.76,44.37,1023.25,2022.99,2942.00,2760.47,3159.07,599.85,594.90,56.79,0000 0000 0000 0000 000000
2018-05-21 05:11:07,0.01,1.20,0.00,25.53,28.12,30.85,13.81,44.31,1023.05,2022.97,2941.83,2760.03,3159.00,600.31,595.00,56.84,0000 0000 0000 0000 000000
2018-05-21 05:16:08,0.01,1.20,0.00,25.52,28.14,30.87,13.79,44.52,1023.01,2022.97,2941.20,2760.00,3158.98,600.21,594.94,56.89,0000 0000 0000 0000 000000
2018-05-21 05:21:09,0.01,1.20,0.00,25.54,28.15,30.88,13.76,44.43,1022.98,2022.98,2941.01,2759.99,3158.79,599.75,594.48,56.95,0000 0000 0000 0000 000000
2018-05-21 05:26:10,-0.00,1.20,0.00,25.57,28.17,30.89,13.79,44.39,1022.98,2022.91,2941.00,2759.95,3158.16,600.01,594.43,57.00,0000 0000 0000 0000 000000
2018-05-21 05:31:11,0.01,1.20,0.00,25.57,28.17,30.91,13.83,44.57,1022.98,2022.81,2940.91,2759.45,3158.01,599.83,594.23,57.05,0000 0000 0000 0000 000000
2018-05-21 05:36:12,0.00,1.20,0.00,25.61,28.19,30.93,13.72,44.44,1022.97,2022.67,2940.29,2759.04,3157.99,599.73,594.26,57.10,0000 0000 0000 0000 000000
2018-05-21 05:41:13,-0.03,1.20,0.00,25.66,28.20,30.94,13.77,44.49,1022.96,2022.22,2940.01,2759.00,3157.71,599.67,594.17,57.15,0000 0000 0000 0000 000000
2018-05-21 05:46:15,0.00,1.20,0.00,25.61,28.22,30.94,13.77,44.48,1022.98,2022.18,2939.99,2758.98,3157.22,599.85,594.61,57.20,0000 0000 0000 0000 000000
2018-05-21 05:51:16,0.00,1.20,0.00,25.63,28.22,31.00,13.77,44.51,1022.96,2022.14,2939.96,2758.93,3157.01,599.89,594.28,57.25,0000 0000 0000 0000 000000
2018-05-21 05:56:17,0.02,1.20,0.00,25.69,28.25,30.99,13.79,44.41,1022.96,2022.03,2939.32,2758.34,3156.99,600.05,594.42,57.30,0000 0000 0000 0000 000000
2018-05-21 06:01:19,0.00,1.20,0.00,25.65,28.25,31.01,13.78,44.46,1022.96,2022.02,2939.00,2758.01,3156.76,599.88,594.28,57.35,0000 0000 0000 0000 000000
2018-05-21 06:06:20,0.01,1.20,0.00,25.67,28.27,31.03,13.77,44.48,1022.96,2022.01,2938.95,2757.99,3156.07,599.67,593.99,57.40,0000 0000 0000 0000 000000
2018-05-21 06:11:21,0.01,1.20,0.00,25.70,28.28,31.04,13.83,44.48,1022.96,2022.01,2938.45,2757.90,3156.00,600.21,594.55,57.45,0000 0000 0000 0000 000000
2018-05-21 06:16:23,0.02,1.20,0.00,25.68,28.30,31.07,13.76,44.48,1022.96,2022.00,2938.02,2757.28,3155.96,599.70,594.14,57.50,0000 0000 0000 0000 000000
2018-05-21 06:21:24,0.02,1.20,0.00,25.71,28.31,31.07,13.74,44.49,1022.96,2022.00,2937.98,2757.01,3155.31,599.97,594.29,57.55,0000 0000 0000 0000 000000
2018-05-21 06:26:25,0.01,1.20,0.00,25.70,28.32,31.08,13.81,44.43,1022.96,2021.99,2937.64,2757.00,3155.02,600.25,594.60,57.60,0000 0000 0000 0000 000000
2018-05-21 06:31:27,0.01,1.20,0.00,25.73,28.35,31.09,13.84,44.38,1022.95,2021.98,2937.08,2756.95,3154.99,599.77,594.01,57.65,0000 0000 0000 0000 000000
2018-05-21 06:36:28,0.02,1.20,0.00,25.73,28.35,31.11,13.75,44.33,1022.91,2021.98,2937.00,2756.56,3154.77,599.94,594.08,57.70,0000 0000 0000 0000 000000
2018-05-21 06:41:29,0.01,1.21,0.00,25.74,28.37,31.13,13.83,44.44,1022.94,2021.91,2936.83,2756.02,3154.09,599.69,593.94,57.75,0000 0000 0000 0000 000000
2018-05-21 06:46:30,0.01,1.21,0.00,25.78,28.39,31.12,13.79,44.34,1022.96,2021.91,2936.14,2756.00,3154.00,599.66,593.94,57.80,0000 0000 0000 0000 000000
2018-05-21 06:51:32,-0.01,1.21,0.00,25.79,28.40,31.13,13.89,44.37,1022.96,2021.85,2936.00,2755.96,3153.97,600.35,594.57,57.86,0000 0000 0000 0000 000000
2018-05-21 06:56:33,0.00,1.21,0.00,25.80,28.42,31.17,13.75,44.39,1022.94,2021.71,2935.98,2755.69,3153.60,599.87,594.10,57.91,0000 0000 0000 0000 000000
2018-05-21 07:01:34,0.01,1.21,0.00,25.83,28.44,31.19,13.84,44.43,1022.96,2021.50,2935.77,2755.11,3153.05,600.33,594.41,57.96,0000 0000 0000 0000 000000
2018-05-21 07:06:35,-0.00,1.21,0.00,25.84,28.46,31.19,13.78,44.45,1022.93,2021.22,2935.13,2755.00,3153.00,599.54,593.76,58.01,0000 0000 0000 0000 000000
2018-05-21 07:11:36,-0.01,1.21,0.00,25.87,28.47,31.21,13.81,44.50,1022.94,2021.11,2935.00,2754.98,3152.85,599.82,593.73,58.06,0000 0000 0000 0000 000000
2018-05-21 07:16:38,0.03,1.21,0.00,25.89,28.50,31.24,13.76,44.24,1022.95,2021.02,2934.56,2754.57,3152.16,600.55,594.54,58.11,0000 0000 0000 0000 000000
2018-05-21 07:21:39,0.02,1.21,0.00,25.92,28.51,31.24,13.74,44.33,1022.95,2021.01,2934.05,2754.05,3152.00,599.44,593.35,58.16,0000 0000 0000 0000 000000
2018-05-21 07:26:40,0.00,1.21,0.00,25.94,28.53,31.27,13.83,44.38,1022.96,2021.01,2933.99,2754.00,3151.90,599.90,593.84,58.21,0000 0000 0000 0000 000000
2018-05-21 07:31:41,0.02,1.21,0.00,25.96,28.55,31.28,13.76,44.50,1022.90,2021.00,2933.69,2753.91,3151.23,599.98,593.88,58.26,0000 0000 0000 0000 000000
2018-05-21 07:36:42,0.03,1.21,0.00,25.98,28.57,31.31,13.80,44.34,1022.74,2021.00,2933.08,2753.32,3151.01,600.16,593.82,58.31,0000 0000 0000 0000 000000
2018-05-21 07:41:44,0.00,1.21,0.00,26.00,28.60,31.32,13.70,44.43,1022.85,2020.99,2933.00,2753.02,3150.95,599.59,593.28,58.36,0000 0000 0000 0000 000000
2018-05-21 07:46:45,0.02,1.21,0.00,26.02,28.61,31.33,13.85,44.37,1022.93,2020.98,2932.63,2752.99,3150.27,600.44,594.06,58.41,0000 0000 0000 0000 000000
2018-05-21 07:51:46,0.02,1.21,0.00,26.01,28.63,31.35,13.81,44.50,1022.87,2020.97,2932.04,2752.70,3150.00,600.15,593.83,58.46,0000 0000 0000 0000 000000
2018-05-21 07:56:48,0.01,1.22,0.00,26.07,28.65,31.37,13.78,44.28,1022.74,2020.92,2931.99,2752.09,3149.96,599.64,593.12,58.51,0000 0000 0000 0000 000000
2018-05-21 08:01:49,0.01,1.22,0.00,26.09,28.67,31.39,13.71,44.38,1022.57,2020.88,2931.82,2752.00,3149.52,599.66,593.01,58.56,0000 0000 0000 0000 000000
2018-05-21 08:06:50,-0.00,1.22,0.00,26.09,28.70,31.41,13.76,44.37,1022.60,2020.66,2931.10,2751.98,3149.04,599.91,593.16,58.61,0000 0000 0000 0000 000000
2018-05-21 08:11:52,-0.01,1.22,0.00,26.13,28.71,31.43,13.75,44.38,1022.52,2020.36,2930.96,2751.59,3148.89,600.15,593.34,58.66,0000 0000 0000 0000 000000
2018-05-21 08:16:53,0.02,1.22,0.00,26.13,28.74,31.45,13.84,44.44,1022.48,2020.07,2930.44,2751.02,3148.22,600.12,593.33,58.71,0000 0000 0000 0000 000000
2018-05-21 08:21:54,-0.00,1.22,0.00,26.15,28.76,31.47,13.82,44.52,1022.50,2020.01,2930.01,2751.00,3148.00,600.17,593.33,58.76,0000 0000 0000 0000 000000
2018-05-21 08:26:55,0.01,1.22,0.00,26.17,28.77,31.50,13.76,44.34,1022.50,2020.00,2929.91,2750.84,3147.84,599.99,593.12,58.81,0000 0000 0000 0000 000000
2018-05-21 08:31:57,0.04,1.22,0.00,26.19,28.80,31.51,13.72,44.42,1022.49,2020.00,2929.43,2750.20,3147.15,599.79,592.92,58.87,0000 0000 0000 0000 000000
2018-05-21 08:36:58,0.01,1.22,0.00,26.20,28.82,31.52,13.78,44.38,1022.48,2020.00,2929.00,2750.00,3147.00,600.05,593.18,58.92,0000 0000 0000 0000 000000
2018-05-21 08:41:59,0.01,1.22,0.00,26.25,28.84,31.55,13.77,44.54,1022.49,2020.00,2928.85,2749.96,3146.81,600.07,592.99,58.97,0000 0000 0000 0000 000000
2018-05-21 08:47:01,0.05,1.22,0.00,26.28,28.86,31.57,13.80,44.39,1022.58,2020.00,2928.11,2749.35,3146.09,600.03,593.05,59.02,0000 0000 0000 0000 000000
2018-05-21 08:52:02,0.00,1.22,0.00,26.29,28.88,31.60,13.74,44.38,1022.61,2019.99,2928.00,2749.03,3146.00,600.09,593.05,59.07,0000 0000 0000 0000 000000
2018-05-21 08:57:04,0.00,1.22,0.00,26.32,28.90,31.62,13.87,44.43,1022.49,2019.97,2927.97,2749.00,3145.91,600.37,593.12,59.12,0000 0000 0000 0000 000000
2018-05-21 09:02:05,0.02,1.22,0.00,26.35,28.92,31.64,13.74,44.47,1022.48,2019.96,2927.65,2748.96,3145.21,600.21,592.91,59.17,0000 0000 0000 0000 000000
2018-05-21 09:07:06,0.03,1.22,0.00,26.34,28.95,31.65,13.73,44.44,1022.48,2019.90,2927.05,2748.41,3145.00,599.83,592.70,59.22,0000 0000 0000 0000 000000
2018-05-21 09:12:07,-0.05,1.22,0.00,26.36,28.97,31.67,13.74,44.33,1022.48,2019.43,2926.97,2748.01,3144.91,599.73,592.50,59.27,0000 0000 0000 0000 000000
2018-05-21 09:17:09,0.01,1.22,0.00,26.42,28.99,31.69,13.75,44.31,1022.48,2019.08,2926.31,2747.98,3144.17,599.99,592.56,59.32,0000 0000 0000 0000 000000
2018-05-21 09:22:10,0.01,1.22,0.00,26.45,29.01,31.70,13.82,44.38,1022.48,2019.05,2926.01,2747.56,3144.00,600.18,592.66,59.37,0000 0000 0000 0000 000000
2018-05-21 09:27:11,0.01,1.22,0.00,26.47,29.04,31.73,13.73,44.43,1022.46,2019.00,2925.96,2747.03,3143.88,599.81,592.31,59.42,0000 0000 0000 0000 000000
2018-05-21 09:32:13,0.02,1.23,0.00,26.56,29.07,31.76,13.77,44.41,1022.42,2019.00,2925.48,2746.99,3143.23,600.09,592.41,59.47,0000 0000 0000 0000 000000
2018-05-21 09:37:14,0.02,1.23,0.00,26.62,29.10,31.77,13.82,44.34,1022.34,2019.00,2925.01,2746.71,3143.00,600.24,592.45,59.52,0000 0000 0000 0000 000000
2018-05-21 09:42:15,0.02,1.23,0.00,26.66,29.13,31.80,13.70,44.39,1022.47,2018.99,2924.90,2746.06,3142.67,599.92,592.17,59.57,0000 0000 0000 0000 000000
2018-05-21 09:47:17,0.02,1.23,0.00,26.72,29.17,31.83,13.67,44.41,1022.40,2018.98,2924.21,2745.99,3142.04,599.98,592.02,59.62,0000 0000 0000 0000 000000
2018-05-21 09:52:18,-0.01,1.23,0.00,26.80,29.21,31.85,13.76,44.45,1022.27,2018.79,2924.00,2745.62,3141.92,599.86,591.58,59.67,0000 0000 0000 0000 000000
2018-05-21 09:57:19,-0.01,1.23,0.00,26.82,29.25,31.89,13.75,44.41,1022.11,2018.35,2923.82,2745.05,3141.23,600.03,591.65,59.72,0000 0000 0000 0000 000000
2018-05-21 10:02:21,-0.00,0.33,0.00,26.84,29.30,31.91,12.06,40.89,1022.06,2018.77,3295.24,2990.01,3438.22,533.56,526.05,0.00,0000 0000 0000 0000 000000
2018-05-21 10:07:22,0.00,0.00,0.00,26.93,29.34,31.93,13.71,46.71,1022.04,2019.00,3426.77,3077.92,3545.64,599.89,591.31,0.05,0000 0000 0000 0000 000000
2018-05-21 10:12:23,0.00,0.00,0.00,26.99,29.38,31.98,13.76,46.72,1022.00,2018.99,3425.58,3077.14,3544.60,600.01,591.26,0.10,0000 0000 0000 0000 000000
2018-05-21 10:17:24,0.00,0.00,0.00,27.02,29.42,32.01,13.75,46.67,1021.99,2018.98,3424.81,3076.75,3543.84,599.93,591.07,0.15,0000 0000 0000 0000 000000
2018-05-21 10:22:25,0.01,0.00,0.00,27.04,29.47,32.06,13.73,46.73,1021.99,2018.80,3423.97,3076.03,3542.96,600.00,591.09,0.20,0000 0000 0000 0000 000000
2018-05-21 10:27:26,-0.00,0.00,0.00,27.12,29.51,32.13,13.76,46.67,1022.01,2018.12,3423.11,3075.35,3542.08,600.03,591.03,0.25,0000 0000 0000 0000 000000
2018-05-21 10:32:27,0.02,0.00,0.00,27.17,29.56,32.22,13.65,46.67,1022.07,2018.01,3422.34,3074.98,3541.42,599.63,590.55,0.30,0000 0000 0000 0000 000000
2018-05-21 10:37:29,0.04,0.00,0.00,27.20,29.61,32.30,13.76,46.64,1022.09,2018.00,3421.61,3074.32,3540.71,600.02,590.83,0.35,0000 0000 0000 0000 000000
2018-05-21 10:42:30,0.01,0.01,0.00,27.23,29.65,32.38,13.69,46.60,1022.21,2017.99,3420.99,3073.99,3540.02,599.87,590.75,0.40,0000 0000 0000 0000 000000
2018-05-21 10:47:31,0.03,0.01,0.00,27.31,29.70,32.47,13.74,46.69,1022.22,2017.86,3420.29,3073.35,3539.33,600.00,590.72,0.45,0000 0000 0000 0000 000000
2018-05-21 10:52:32,-0.03,0.01,0.00,27.37,29.74,32.53,13.70,46.59,1022.19,2017.28,3419.66,3072.93,3538.65,599.70,590.33,0.50,0000 0000 0000 0000 000000
2018-05-21 10:57:33,0.02,0.01,0.00,27.41,29.78,32.60,13.71,46.63,1022.08,2017.01,3419.00,3072.18,3537.98,600.01,590.47,0.55,0000 0000 0000 0000 000000
2018-05-21 11:02:35,0.02,0.01,0.00,27.43,29.83,32.69,13.71,46.51,1022.08,2017.00,3418.31,3071.96,3537.31,599.72,590.24,0.60,0000 0000 0000 0000 000000
2018-05-21 11:07:36,0.03,0.01,0.00,27.47,29.88,32.75,13.74,46.58,1022.02,2017.00,3417.70,3071.14,3536.76,600.25,590.53,0.65,0000 0000 0000 0000 000000
2018-05-21 11:12:38,0.00,0.01,0.00,27.51,29.92,32.81,13.77,46.55,1022.10,2016.86,3416.99,3070.96,3536.02,600.19,590.49,0.70,0000 0000 0000 0000 000000
2018-05-21 11:17:39,-0.01,0.01,0.00,27.54,29.97,32.86,13.68,46.52,1022.10,2016.24,3416.16,3070.19,3535.33,599.86,589.92,0.75,0000 0000 0000 0000 000000
2018-05-21 11:22:40,0.01,0.01,0.00,27.55,30.01,32.91,13.71,46.51,1022.32,2016.02,3415.89,3069.95,3534.56,599.75,589.98,0.80,0000 0000 0000 0000 000000
2018-05-21 11:27:42,0.04,0.01,0.00,27.57,30.06,32.94,13.77,46.48,1022.35,2016.00,3415.11,3069.22,3533.99,600.03,590.22,0.85,0000 0000 0000 0000 000000
2018-05-21 11:32:43,0.03,0.01,0.00,27.60,30.09,32.95,13.68,46.49,1022.05,2015.97,3414.25,3068.83,3533.32,599.99,590.06,0.90,0000 0000 0000 0000 000000
2018-05-21 11:37:44,-0.02,0.01,0.00,27.59,30.13,32.96,13.78,46.43,1022.01,2015.61,3413.98,3068.14,3532.65,599.99,590.07,0.95,0000 0000 0000 0000 000000
2018-05-21 11:42:45,-0.01,0.01,0.00,27.58,30.16,32.98,13.74,46.48,1022.00,2015.13,3413.17,3067.94,3532.02,600.01,590.15,1.00,0000 0000 0000 0000 000000
2018-05-21 11:47:47,0.03,0.01,0.00,27.57,30.20,33.00,13.73,46.40,1022.01,2015.02,3412.74,3067.18,3531.44,600.10,590.19,1.05,0000 0000 0000 0000 000000
2018-05-21 11:52:48,0.01,0.01,0.00,27.57,30.23,33.02,13.72,46.45,1022.00,2014.99,3412.02,3066.96,3530.97,599.92,590.17,1.10,0000 0000 0000 0000 000000
2018-05-21 11:57:49,0.04,0.02,0.00,27.59,30.25,33.04,13.74,46.42,1021.99,2014.97,3411.22,3066.27,3530.36,600.24,590.13,1.15,0000 0000 0000 0000 000000
2018-05-21 12:02:51,0.00,0.02,0.00,27.54,30.27,33.06,13.70,46.47,1021.99,2014.94,3410.90,3066.00,3529.99,600.14,590.31,1.20,0000 0000 0000 0000 000000
2018-05-21 12:07:52,0.02,0.02,0.00,27.49,30.30,33.07,13.78,46.48,1021.99,2014.81,3410.12,3065.60,3529.44,600.27,590.52,1.25,0000 0000 0000 0000 000000
2018-05-21 12:12:53,-0.03,0.02,0.00,27.43,30.32,33.06,13.78,46.60,1021.99,2014.28,3409.88,3065.02,3528.91,599.86,590.26,1.30,0000 0000 0000 0000 000000
2018-05-21 12:17:54,0.01,0.02,0.00,27.41,30.33,33.08,13.71,46.43,1021.99,2014.04,3409.37,3064.98,3528.12,600.01,590.29,1.35,0000 0000 0000 0000 000000
2018-05-21 12:22:56,0.01,0.02,0.00,27.37,30.35,33.08,13.72,46.49,1021.99,2014.00,3409.01,3064.60,3527.99,600.02,590.52,1.40,0000 0000 0000 0000 000000
2018-05-21 12:27:57,0.02,0.02,0.00,27.31,30.35,33.08,13.82,46.48,1021.99,2014.00,3408.83,3064.08,3527.71,600.47,591.02,1.45,0000 0000 0000 0000 000000
2018-05-21 12:32:58,0.01,0.02,0.00,27.27,30.35,33.09,13.76,46.44,1021.99,2014.00,3408.07,3064.00,3527.05,599.79,590.49,1.50,0000 0000 0000 0000 000000
2018-05-21 12:38:00,0.00,0.02,0.00,27.27,30.35,33.08,13.84,46.46,1021.98,2014.00,3407.89,3063.91,3526.99,600.02,590.69,1.55,0000 0000 0000 0000 000000
2018-05-21 12:43:01,0.03,0.02,0.00,27.25,30.35,33.08,13.72,46.49,1021.94,2013.99,3407.16,3063.32,3526.74,599.35,590.05,1.60,0000 0000 0000 0000 000000
2018-05-21 12:48:02,0.01,0.02,0.00,27.20,30.35,33.07,13.69,46.48,1021.73,2013.99,3407.00,3063.02,3526.12,599.96,590.67,1.65,0000 0000 0000 0000 000000
2018-05-21 12:53:03,0.01,0.02,0.00,27.16,30.35,33.06,13.76,46.49,1021.53,2013.99,3406.62,3062.99,3526.00,600.02,590.63,1.70,0000 0000 0000 0000 000000
2018-05-21 12:58:04,0.00,0.02,0.00,27.15,30.32,33.04,13.77,46.34,1021.50,2013.99,3406.02,3062.98,3525.97,600.01,590.65,1.75,0000 0000 0000 0000 000000